Time,TemperatureF,DewpointF,PressureIn,WindDirection,WindDirectionDegrees,WindSpeedMPH,WindSpeedGustMPH,Humidity,HourlyPrecipIn,Conditions,Clouds,dailyrainin,SoftwareType,DateUTC
2013-07-17 00:02:00,82.8,75.0,30.22,NNE,18,0.0,-999.0,78,-99.99,,,0.00,weatherlink.com 1.10,2013-07-17 05:02:00,
2013-07-17 00:17:00,82.5,75.0,30.21,NW,320,0.0,-999.0,78,-99.99,,,0.00,weatherlink.com 1.10,2013-07-17 05:17:00,
2013-07-17 00:32:00,82.5,75.0,30.21,ENE,70,0.0,-999.0,78,-99.99,,,0.00,weatherlink.com 1.10,2013-07-17 05:32:00,
2013-07-17 00:47:00,82.3,75.0,30.21,ENE,68,0.0,-999.0,79,-99.99,,,0.00,weatherlink.com 1.10,2013-07-17 05:47:00,
2013-07-17 01:02:00,82.0,75.0,30.21,WSW,257,0.0,-999.0,80,-99.99,,,0.00,weatherlink.com 1.10,2013-07-17 06:02:00,
2013-07-17 01:17:00,81.8,76.0,30.21,NW,320,0.0,-999.0,81,-99.99,,,0.00,weatherlink.com 1.10,2013-07-17 06:17:00,
2013-07-17 01:32:00,81.3,75.0,30.21,ENE,70,0.0,-999.0,81,-99.99,,,0.00,weatherlink.com 1.10,2013-07-17 06:32:00,
2013-07-17 01:47:00,81.2,75.0,30.21,ENE,70,0.0,-999.0,80,-99.99,,,0.00,weatherlink.com 1.10,2013-07-17 06:47:00,
2013-07-17 02:02:00,81.2,75.0,30.21,ENE,70,0.0,-999.0,80,-99.99,,,0.00,weatherlink.com 1.10,2013-07-17 07:02:00,
2013-07-17 02:17:00,80.9,74.0,30.21,ENE,70,0.0,-999.0,80,-99.99,,,0.00,weatherlink.com 1.10,2013-07-17 07:17:00,
2013-07-17 02:32:00,80.7,74.0,30.21,ENE,68,0.0,-999.0,80,-99.99,,,0.00,weatherlink.com 1.10,2013-07-17 07:32:00,
2013-07-17 02:47:00,80.6,74.0,30.21,ENE,58,0.0,-999.0,81,-99.99,,,0.00,weatherlink.com 1.10,2013-07-17 07:47:00,
2013-07-17 03:02:00,80.5,74.0,30.21,ENE,58,0.0,-999.0,81,-99.99,,,0.00,weatherlink.com 1.10,2013-07-17 08:02:00,
2013-07-17 03:17:00,80.6,74.0,30.22,ENE,67,0.0,-999.0,80,-99.99,,,0.00,weatherlink.com 1.10,2013-07-17 08:17:00,
2013-07-17 03:32:00,80.5,74.0,30.22,East,101,0.0,-999.0,80,-99.99,,,0.00,weatherlink.com 1.10,2013-07-17 08:32:00,
2013-07-17 03:47:00,80.4,74.0,30.22,ESE,116,0.0,-999.0,80,-99.99,,,0.00,weatherlink.com 1.10,2013-07-17 08:47:00,
2013-07-17 04:02:00,80.3,74.0,30.22,ESE,106,0.0,-999.0,81,-99.99,,,0.00,weatherlink.com 1.10,2013-07-17 09:02:00,
2013-07-17 04:17:00,80.5,74.0,30.22,ESE,107,0.0,-999.0,80,-99.99,,,0.00,weatherlink.com 1.10,2013-07-17 09:17:00,
2013-07-17 04:32:00,80.3,74.0,30.22,East,98,0.0,-999.0,81,-99.99,,,0.00,weatherlink.com 1.10,2013-07-17 09:32:00,
2013-07-17 04:47:00,80.1,74.0,30.22,ENE,67,0.0,-999.0,81,-99.99,,,0.00,weatherlink.com 1.10,2013-07-17 09:47:00,
2013-07-17 05:02:00,80.0,74.0,30.23,East,92,0.0,-999.0,81,-99.99,,,0.00,weatherlink.com 1.10,2013-07-17 10:02:00,
2013-07-17 05:17:00,79.8,74.0,30.23,East,92,0.0,-999.0,81,-99.99,,,0.00,weatherlink.com 1.10,2013-07-17 10:17:00,
2013-07-17 05:32:00,79.6,74.0,30.23,East,92,0.0,-999.0,82,-99.99,,,0.00,weatherlink.com 1.10,2013-07-17 10:32:00,
2013-07-17 05:47:00,79.3,73.0,30.23,East,87,0.0,-999.0,82,-99.99,,,0.00,weatherlink.com 1.10,2013-07-17 10:47:00,
2013-07-17 06:02:00,79.1,73.0,30.23,ENE,70,0.0,-999.0,82,-99.99,,,0.00,weatherlink.com 1.10,2013-07-17 11:02:00,
2013-07-17 06:17:00,79.2,73.0,30.23,NE,54,0.0,-999.0,82,-99.99,,,0.00,weatherlink.com 1.10,2013-07-17 11:17:00,
2013-07-17 06:32:00,79.3,73.0,30.23,East,101,0.0,-999.0,82,-99.99,,,0.00,weatherlink.com 1.10,2013-07-17 11:32:00,
2013-07-17 06:47:00,79.6,74.0,30.24,NNE,33,0.0,-999.0,82,-99.99,,,0.00,weatherlink.com 1.10,2013-07-17 11:47:00,
2013-07-17 07:02:00,80.0,74.0,30.23,East,98,1.0,-999.0,81,-99.99,,,0.00,weatherlink.com 1.10,2013-07-17 12:02:00,
2013-07-17 07:17:00,80.2,74.0,30.24,ENE,68,0.0,-999.0,81,-99.99,,,0.00,weatherlink.com 1.10,2013-07-17 12:17:00,
2013-07-17 07:32:00,80.6,74.0,30.24,East,81,0.0,-999.0,80,-99.99,,,0.00,weatherlink.com 1.10,2013-07-17 12:32:00,
2013-07-17 07:47:00,81.1,74.0,30.24,ENE,62,0.0,-999.0,79,-99.99,,,0.00,weatherlink.com 1.10,2013-07-17 12:47:00,
2013-07-17 08:02:00,81.4,74.0,30.24,SE,127,0.0,-999.0,79,-99.99,,,0.00,weatherlink.com 1.10,2013-07-17 13:02:00,
2013-07-17 08:17:00,82.0,75.0,30.25,North,3,0.0,-999.0,78,-99.99,,,0.00,weatherlink.com 1.10,2013-07-17 13:17:00,
2013-07-17 08:32:00,82.7,74.0,30.25,ENE,57,0.0,-999.0,76,-99.99,,,0.00,weatherlink.com 1.10,2013-07-17 13:32:00,
2013-07-17 08:47:00,83.4,74.0,30.24,East,80,1.0,-999.0,74,-99.99,,,0.00,weatherlink.com 1.10,2013-07-17 13:47:00,
2013-07-17 09:02:00,83.9,74.0,30.24,ENE,70,0.0,-999.0,73,-99.99,,,0.00,weatherlink.com 1.10,2013-07-17 14:02:00,
2013-07-17 09:17:00,84.6,75.0,30.24,ENE,69,0.0,-999.0,73,-99.99,,,0.00,weatherlink.com 1.10,2013-07-17 14:17:00,
2013-07-17 09:32:00,85.2,74.0,30.24,North,6,0.0,-999.0,70,-99.99,,,0.00,weatherlink.com 1.10,2013-07-17 14:32:00,
2013-07-17 09:47:00,85.9,75.0,30.23,NW,323,0.0,-999.0,70,-99.99,,,0.00,weatherlink.com 1.10,2013-07-17 14:47:00,
2013-07-17 10:02:00,87.0,75.0,30.23,NNW,341,2.0,-999.0,67,-99.99,,,0.00,weatherlink.com 1.10,2013-07-17 15:02:00,
2013-07-17 10:17:00,87.8,75.0,30.23,ESE,106,2.0,-999.0,66,-99.99,,,0.00,weatherlink.com 1.10,2013-07-17 15:17:00,
2013-07-17 10:32:00,88.5,75.0,30.23,SSE,152,0.0,-999.0,64,-99.99,,,0.00,weatherlink.com 1.10,2013-07-17 15:32:00,
2013-07-17 10:47:00,89.5,75.0,30.22,East,87,0.0,-999.0,63,-99.99,,,0.00,weatherlink.com 1.10,2013-07-17 15:47:00,
2013-07-17 11:02:00,90.6,75.0,30.23,ENE,70,0.0,-999.0,61,-99.99,,,0.00,weatherlink.com 1.10,2013-07-17 16:02:00,
2013-07-17 11:17:00,91.6,75.0,30.22,East,95,0.0,-999.0,59,-99.99,,,0.00,weatherlink.com 1.10,2013-07-17 16:17:00,
2013-07-17 11:32:00,92.9,75.0,30.22,South,176,1.0,-999.0,56,-99.99,,,0.00,weatherlink.com 1.10,2013-07-17 16:32:00,
2013-07-17 11:47:00,93.5,75.0,30.22,SE,136,3.0,-999.0,55,-99.99,,,0.00,weatherlink.com 1.10,2013-07-17 16:47:00,
2013-07-17 12:02:00,94.1,75.0,30.22,ENE,78,1.0,-999.0,54,-99.99,,,0.00,weatherlink.com 1.10,2013-07-17 17:02:00,
2013-07-17 12:17:00,95.0,75.0,30.21,South,173,0.0,-999.0,52,-99.99,,,0.00,weatherlink.com 1.10,2013-07-17 17:17:00,
2013-07-17 12:33:00,95.3,74.0,30.21,NNW,328,0.0,-999.0,50,-99.99,,,0.00,weatherlink.com 1.10,2013-07-17 17:33:00,
2013-07-17 12:48:00,95.3,74.0,30.21,East,92,0.0,-999.0,51,-99.99,,,0.00,weatherlink.com 1.10,2013-07-17 17:48:00,
2013-07-17 13:03:00,94.8,73.0,30.20,East,98,2.0,-999.0,50,-99.99,,,0.00,weatherlink.com 1.10,2013-07-17 18:03:00,
2013-07-17 13:18:00,95.0,74.0,30.20,NNW,334,1.0,-999.0,51,-99.99,,,0.00,weatherlink.com 1.10,2013-07-17 18:18:00,
2013-07-17 13:33:00,94.9,74.0,30.20,ESE,113,0.0,-999.0,51,-99.99,,,0.00,weatherlink.com 1.10,2013-07-17 18:33:00,
2013-07-17 13:48:00,95.0,74.0,30.19,WNW,291,0.0,-999.0,50,-99.99,,,0.00,weatherlink.com 1.10,2013-07-17 18:48:00,
2013-07-17 14:03:00,95.6,75.0,30.18,NW,325,0.0,-999.0,51,-99.99,,,0.00,weatherlink.com 1.10,2013-07-17 19:03:00,
2013-07-17 14:18:00,96.1,74.0,30.17,East,100,1.0,-999.0,49,-99.99,,,0.00,weatherlink.com 1.10,2013-07-17 19:18:00,
2013-07-17 14:33:00,96.7,73.0,30.17,ESE,104,1.0,-999.0,47,-99.99,,,0.00,weatherlink.com 1.10,2013-07-17 19:33:00,
2013-07-17 14:48:00,95.9,73.0,30.17,ENE,64,0.0,-999.0,47,-99.99,,,0.00,weatherlink.com 1.10,2013-07-17 19:48:00,
2013-07-17 15:03:00,97.1,73.0,30.16,SE,132,2.0,-999.0,46,-99.99,,,0.00,weatherlink.com 1.10,2013-07-17 20:03:00,
2013-07-17 15:18:00,96.7,72.0,30.16,East,79,1.0,-999.0,45,-99.99,,,0.00,weatherlink.com 1.10,2013-07-17 20:18:00,
2013-07-17 15:33:00,98.0,73.0,30.16,SE,126,2.0,-999.0,45,-99.99,,,0.00,weatherlink.com 1.10,2013-07-17 20:33:00,
2013-07-17 15:48:00,98.1,73.0,30.16,East,100,1.0,-999.0,45,-99.99,,,0.00,weatherlink.com 1.10,2013-07-17 20:48:00,
2013-07-17 16:03:00,97.1,74.0,30.16,SE,133,0.0,-999.0,47,-99.99,,,0.00,weatherlink.com 1.10,2013-07-17 21:03:00,
2013-07-17 16:18:00,96.0,73.0,30.15,ENE,60,0.0,-999.0,48,-99.99,,,0.00,weatherlink.com 1.10,2013-07-17 21:18:00,
2013-07-17 16:33:00,96.0,73.0,30.14,ESE,120,0.0,-999.0,47,-99.99,,,0.00,weatherlink.com 1.10,2013-07-17 21:33:00,
2013-07-17 16:48:00,95.2,73.0,30.15,NW,322,0.0,-999.0,49,-99.99,,,0.00,weatherlink.com 1.10,2013-07-17 21:48:00,
2013-07-17 17:03:00,94.1,73.0,30.15,ESE,121,1.0,-999.0,51,-99.99,,,0.00,weatherlink.com 1.10,2013-07-17 22:03:00,
2013-07-17 17:18:00,92.9,74.0,30.14,SE,127,0.0,-999.0,55,-99.99,,,0.00,weatherlink.com 1.10,2013-07-17 22:18:00,
2013-07-17 17:33:00,91.2,74.0,30.14,NE,35,0.0,-999.0,57,-99.99,,,0.00,weatherlink.com 1.10,2013-07-17 22:33:00,
2013-07-17 17:48:00,88.3,77.0,30.15,NW,325,1.0,-999.0,69,-99.99,,,0.00,weatherlink.com 1.10,2013-07-17 22:48:00,
2013-07-17 18:03:00,86.1,77.0,30.14,SE,128,0.0,-999.0,74,-99.99,,,0.01,weatherlink.com 1.10,2013-07-17 23:03:00,
2013-07-17 18:18:00,85.6,75.0,30.14,ESE,116,2.0,-999.0,71,-99.99,,,0.01,weatherlink.com 1.10,2013-07-17 23:18:00,
2013-07-17 18:33:00,86.4,76.0,30.14,SSE,166,0.0,-999.0,71,-99.99,,,0.01,weatherlink.com 1.10,2013-07-17 23:33:00,
2013-07-17 18:48:00,86.7,75.0,30.13,SSE,166,0.0,-999.0,68,-99.99,,,0.01,weatherlink.com 1.10,2013-07-17 23:48:00,
2013-07-17 19:03:00,87.0,77.0,30.13,SSE,166,0.0,-999.0,71,-99.99,,,0.01,weatherlink.com 1.10,2013-07-18 00:03:00,
2013-07-17 19:18:00,87.2,76.0,30.13,SSE,166,0.0,-999.0,69,-99.99,,,0.01,weatherlink.com 1.10,2013-07-18 00:18:00,
2013-07-17 19:33:00,86.9,76.0,30.13,SSE,166,0.0,-999.0,71,-99.99,,,0.01,weatherlink.com 1.10,2013-07-18 00:33:00,
2013-07-17 19:48:00,86.4,76.0,30.12,SSE,166,0.0,-999.0,71,-99.99,,,0.01,weatherlink.com 1.10,2013-07-18 00:48:00,
2013-07-17 20:03:00,85.9,76.0,30.11,SSE,166,0.0,-999.0,73,-99.99,,,0.01,weatherlink.com 1.10,2013-07-18 01:03:00,
2013-07-17 20:18:00,85.6,77.0,30.11,SSE,166,0.0,-999.0,75,-99.99,,,0.01,weatherlink.com 1.10,2013-07-18 01:18:00,
2013-07-17 20:33:00,85.4,77.0,30.11,SSE,166,0.0,-999.0,77,-99.99,,,0.01,weatherlink.com 1.10,2013-07-18 01:33:00,
2013-07-17 20:48:00,85.2,78.0,30.11,SSE,166,0.0,-999.0,78,-99.99,,,0.01,weatherlink.com 1.10,2013-07-18 01:48:00,
2013-07-17 21:03:00,84.9,77.0,30.11,SSE,166,0.0,-999.0,77,-99.99,,,0.01,weatherlink.com 1.10,2013-07-18 02:03:00,
2013-07-17 21:18:00,84.4,77.0,30.11,SSE,166,0.0,-999.0,78,-99.99,,,0.01,weatherlink.com 1.10,2013-07-18 02:18:00,
2013-07-17 21:33:00,84.1,78.0,30.12,SSE,166,0.0,-999.0,81,-99.99,,,0.01,weatherlink.com 1.10,2013-07-18 02:33:00,
2013-07-17 21:48:00,84.0,78.0,30.12,SSE,166,0.0,-999.0,81,-99.99,,,0.01,weatherlink.com 1.10,2013-07-18 02:48:00,
2013-07-17 22:03:00,83.6,78.0,30.12,SSE,166,0.0,-999.0,82,-99.99,,,0.01,weatherlink.com 1.10,2013-07-18 03:03:00,
2013-07-17 22:18:00,83.4,77.0,30.13,SSE,166,0.0,-999.0,82,-99.99,,,0.01,weatherlink.com 1.10,2013-07-18 03:18:00,
2013-07-17 22:33:00,83.1,76.0,30.13,SSE,166,0.0,-999.0,80,-99.99,,,0.01,weatherlink.com 1.10,2013-07-18 03:33:00,
2013-07-17 22:49:00,82.7,76.0,30.13,SSE,166,0.0,-999.0,80,-99.99,,,0.01,weatherlink.com 1.10,2013-07-18 03:49:00,
2013-07-17 23:04:00,82.4,76.0,30.13,SSE,166,0.0,-999.0,80,-99.99,,,0.01,weatherlink.com 1.10,2013-07-18 04:04:00,
2013-07-17 23:19:00,82.0,75.0,30.12,SSE,166,0.0,-999.0,80,-99.99,,,0.01,weatherlink.com 1.10,2013-07-18 04:19:00,
2013-07-17 23:34:00,81.6,75.0,30.12,SSE,166,0.0,-999.0,81,-99.99,,,0.01,weatherlink.com 1.10,2013-07-18 04:34:00,
2013-07-17 23:49:00,81.1,76.0,30.12,SSE,166,0.0,-999.0,83,-99.99,,,0.01,weatherlink.com 1.10,2013-07-18 04:49:00,